TimeCDT,TemperatureF,Dew PointF,Humidity,Sea Level PressureIn,VisibilityMPH,Wind Direction,Wind SpeedMPH,Gust SpeedMPH,PrecipitationIn,Events,Conditions,WindDirDegrees,DateUTC
12:15 AM,51.8,37.4,58,29.71,10.0,ESE,5.8,-,N/A,,Clear,110,2013-05-14 05:15:00
12:35 AM,50.0,37.4,62,29.70,10.0,ESE,5.8,-,N/A,,Clear,110,2013-05-14 05:35:00
12:55 AM,50.0,37.4,62,29.69,10.0,ESE,6.9,-,N/A,,Clear,120,2013-05-14 05:55:00
1:15 AM,50.0,37.4,62,29.68,10.0,ESE,6.9,-,N/A,,Clear,120,2013-05-14 06:15:00
1:35 AM,50.0,37.4,62,29.68,10.0,ESE,5.8,-,N/A,,Clear,110,2013-05-14 06:35:00
1:55 AM,50.0,39.2,66,29.67,10.0,ESE,6.9,-,N/A,,Clear,110,2013-05-14 06:55:00
2:15 AM,50.0,39.2,66,29.67,10.0,ENE,3.5,-,N/A,,Clear,70,2013-05-14 07:15:00
2:35 AM,46.4,41.0,81,29.67,10.0,East,3.5,-,N/A,,Clear,90,2013-05-14 07:35:00
2:55 AM,46.4,41.0,81,29.67,10.0,ENE,3.5,-,N/A,,Clear,60,2013-05-14 07:55:00
3:15 AM,46.4,39.2,76,29.67,10.0,East,3.5,-,N/A,,Clear,90,2013-05-14 08:15:00
3:35 AM,46.4,37.4,71,29.68,10.0,Calm,Calm,-,N/A,,Clear,0,2013-05-14 08:35:00
3:55 AM,46.4,39.2,76,29.68,10.0,Calm,Calm,-,N/A,,Clear,0,2013-05-14 08:55:00
4:15 AM,46.4,37.4,71,29.68,10.0,Calm,Calm,-,N/A,,Clear,0,2013-05-14 09:15:00
4:35 AM,46.4,37.4,71,29.67,10.0,Calm,Calm,-,N/A,,Clear,0,2013-05-14 09:35:00
4:55 AM,44.6,39.2,81,29.68,10.0,Calm,Calm,-,N/A,,Clear,0,2013-05-14 09:55:00
5:15 AM,44.6,39.2,81,29.68,10.0,Calm,Calm,-,N/A,,Clear,0,2013-05-14 10:15:00
5:35 AM,44.6,37.4,76,29.68,10.0,Calm,Calm,-,N/A,,Clear,0,2013-05-14 10:35:00
5:55 AM,44.6,37.4,76,29.68,10.0,Calm,Calm,-,N/A,,Clear,0,2013-05-14 10:55:00
6:15 AM,44.6,39.2,81,29.68,10.0,Calm,Calm,-,N/A,,Clear,0,2013-05-14 11:15:00
6:35 AM,44.6,41.0,87,29.69,10.0,Calm,Calm,-,N/A,,Clear,0,2013-05-14 11:35:00
6:55 AM,46.4,41.0,81,29.68,10.0,Calm,Calm,-,N/A,,Clear,0,2013-05-14 11:55:00
7:15 AM,50.0,42.8,76,29.68,10.0,Calm,Calm,-,N/A,,Clear,0,2013-05-14 12:15:00
7:35 AM,51.8,42.8,71,29.68,10.0,Calm,Calm,-,N/A,,Clear,0,2013-05-14 12:35:00
7:55 AM,53.6,44.6,72,29.66,10.0,Calm,Calm,-,N/A,,Clear,0,2013-05-14 12:55:00
8:15 AM,57.2,46.4,67,29.67,10.0,Calm,Calm,-,N/A,,Clear,0,2013-05-14 13:15:00
8:35 AM,60.8,46.4,59,29.68,10.0,ENE,4.6,-,N/A,,Clear,60,2013-05-14 13:35:00
8:55 AM,62.6,46.4,55,29.70,10.0,Calm,Calm,-,N/A,,Clear,0,2013-05-14 13:55:00
9:15 AM,64.4,48.2,56,29.69,10.0,Calm,Calm,-,N/A,,Clear,0,2013-05-14 14:15:00
9:35 AM,68.0,48.2,49,29.69,10.0,ENE,3.5,-,N/A,,Clear,60,2013-05-14 14:35:00
10:15 AM,73.4,46.4,38,29.68,10.0,SE,5.8,-,N/A,,Clear,130,2013-05-14 15:15:00
10:35 AM,73.4,48.2,41,29.69,10.0,East,5.8,-,N/A,,Clear,80,2013-05-14 15:35:00
10:55 AM,73.4,46.4,38,29.72,10.0,Calm,Calm,-,N/A,,Clear,0,2013-05-14 15:55:00
11:15 AM,71.6,46.4,41,29.75,10.0,North,9.2,-,N/A,,Mostly Cloudy,360,2013-05-14 16:15:00
11:35 AM,69.8,50.0,49,29.78,10.0,North,10.4,-,N/A,Rain,Light Rain,350,2013-05-14 16:35:00
11:55 AM,69.8,51.8,53,29.76,10.0,NNE,10.4,-,N/A,Rain,Light Rain,20,2013-05-14 16:55:00
12:15 PM,71.6,51.8,50,29.74,10.0,East,6.9,-,N/A,,Clear,80,2013-05-14 17:15:00
12:35 PM,71.6,51.8,50,29.68,10.0,East,15.0,-,N/A,,Scattered Clouds,80,2013-05-14 17:35:00
12:55 PM,77.0,50.0,39,29.65,10.0,ESE,18.4,-,N/A,,Scattered Clouds,110,2013-05-14 17:55:00
1:15 PM,78.8,46.4,32,29.63,10.0,ESE,17.3,24.2,N/A,,Clear,110,2013-05-14 18:15:00
1:35 PM,80.6,42.8,26,29.60,10.0,ESE,19.6,24.2,N/A,,Clear,110,2013-05-14 18:35:00
1:55 PM,82.4,41.0,23,29.58,10.0,ESE,20.7,26.5,N/A,,Clear,110,2013-05-14 18:55:00
2:15 PM,82.4,41.0,23,29.56,10.0,ESE,19.6,23.0,N/A,,Clear,110,2013-05-14 19:15:00
2:35 PM,84.2,41.0,22,29.56,10.0,SE,19.6,23.0,N/A,,Clear,140,2013-05-14 19:35:00
2:55 PM,86.0,42.8,22,29.57,10.0,SE,11.5,19.6,N/A,,Clear,140,2013-05-14 19:55:00
3:15 PM,87.8,41.0,19,29.55,10.0,SSE,16.1,21.9,N/A,,Clear,150,2013-05-14 20:15:00
3:35 PM,87.8,41.0,19,29.53,10.0,SSE,18.4,25.3,N/A,,Clear,150,2013-05-14 20:35:00
3:55 PM,87.8,42.8,21,29.51,10.0,SSE,15.0,23.0,N/A,,Clear,150,2013-05-14 20:55:00
4:35 PM,89.6,44.6,21,29.48,10.0,SSE,12.7,20.7,N/A,,Clear,150,2013-05-14 21:35:00
4:55 PM,89.6,44.6,21,29.48,10.0,SSE,12.7,-,N/A,,Clear,150,2013-05-14 21:55:00
5:15 PM,89.6,44.6,21,29.48,10.0,South,10.4,-,N/A,,Clear,170,2013-05-14 22:15:00
5:35 PM,91.4,44.6,20,29.46,10.0,South,13.8,19.6,N/A,,Clear,170,2013-05-14 22:35:00
5:55 PM,91.4,46.4,21,29.46,10.0,SSE,8.1,-,N/A,,Clear,160,2013-05-14 22:55:00
6:15 PM,91.4,46.4,21,29.45,10.0,SSE,9.2,-,N/A,,Clear,160,2013-05-14 23:15:00
6:35 PM,91.4,46.4,21,29.45,10.0,South,5.8,-,N/A,,Clear,170,2013-05-14 23:35:00
7:15 PM,89.6,44.6,21,29.46,10.0,West,5.8,-,N/A,,Clear,270,2013-05-15 00:15:00
7:35 PM,89.6,44.6,21,29.46,10.0,West,9.2,20.7,N/A,,Clear,280,2013-05-15 00:35:00
7:55 PM,89.6,41.0,18,29.46,10.0,West,13.8,20.7,N/A,,Clear,270,2013-05-15 00:55:00
8:15 PM,87.8,39.2,18,29.47,10.0,West,11.5,20.7,N/A,,Clear,260,2013-05-15 01:15:00
8:35 PM,86.0,35.6,17,29.48,10.0,West,15.0,-,N/A,,Clear,270,2013-05-15 01:35:00
8:55 PM,84.2,32.0,15,29.50,10.0,West,18.4,27.6,N/A,,Clear,270,2013-05-15 01:55:00
9:15 PM,82.4,28.4,14,29.52,10.0,West,17.3,-,N/A,,Clear,280,2013-05-15 02:15:00
9:35 PM,80.6,30.2,16,29.54,10.0,West,11.5,-,N/A,,Clear,280,2013-05-15 02:35:00
9:55 PM,78.8,28.4,16,29.56,10.0,West,17.3,21.9,N/A,,Clear,280,2013-05-15 02:55:00
10:35 PM,75.2,32.0,21,29.58,10.0,West,13.8,21.9,N/A,,Clear,280,2013-05-15 03:35:00
11:15 PM,73.4,32.0,22,29.60,10.0,West,12.7,20.7,N/A,,Clear,280,2013-05-15 04:15:00
11:35 PM,71.6,33.8,25,29.60,10.0,West,15.0,21.9,N/A,,Clear,280,2013-05-15 04:35:00
11:55 PM,71.6,35.6,27,29.61,10.0,West,12.7,19.6,N/A,,Clear,280,2013-05-15 04:55:00